Tracking 20942 objects as of 9-Jul-2020
HD Live streaming from Space Station
objects crossing your sky now

FENGYUN 1C DEB

Track FENGYUN 1C DEB now!
10-day predictions


NORAD ID: 33650
Int'l Code: 1999-025DEK
Perigee: 845.3 km
Apogee: 1,081.9 km
Inclination: 99.0 °
Period: 104.2 minutes
Semi major axis: 7334 km
RCS: 0.0036 m2 (small)
Launch date: May 10, 1999
Source: People's Republic of China (PRC)
Launch site: Taiyaun Space Center, China (TSC)

Note: This is SATELLITE DEBRIS
aabbcc
Your satellite tracking list
Your tracking list is empty




NASA's NSSDC Master Catalog

Two Line Element Set (TLE):
1 33650U 99025DEK 20191.09506305 +.00000219 +00000-0 +21964-3 0  9990
2 33650 099.0323 054.6340 0161292 022.5310 338.2824 13.82103952413733
Source of the keplerian elements: AFSPC